Weather History for Pine Ridge, SD

Change the Weather History Date:

Saturday, May 18, 2013

  Actual Average Record
Temperature  
Mean Temperature 66 °F 56 °F  
Max Temperature 77 °F 71 °F 90 °F (2007)
Min Temperature 55 °F 42 °F 34 °F (2000)
Degree Days  
Heating Degree Days 0 9  
Month to date heating degree days 202 213  
Since 1 July heating degree days 6981 7033  
Cooling Degree Days 1 1  
Month to date cooling degree days 15 1  
Year to date cooling degree days 15 1  
Growing Degree Days 16 (Base 50)    
Moisture  
Dew Point 55 °F    
Average Humidity 71    
Maximum Humidity 84    
Minimum Humidity 58    
Precipitation  
Precipitation 0.53 in 0.06 in 0.53 in (2013)
Month to date precipitation 1.10 1.49  
Year to date precipitation 3.57 5.06  
Sea Level Pressure  
Sea Level Pressure 29.74 in    
Wind  
Wind Speed 7 mph (SE)    
Max Wind Speed 26 mph    
Max Gust Speed 35 mph    
Visibility 9 miles    
Events Rain , Thunderstorm    
T = Trace of Precipitation, MM = Missing Value Source: NWS Daily Summary

Daily Weather History Graph

Daily Weather History Graph

Search for Another Location

Airport:

Trip Planner

Search our weather history database for the weather conditions in past years. The results will help you decide how hot, cold, wet, or windy it might be!

Date:

Astronomy

May. 18, 2013 Rise Set
Actual Time 5:23 AM MDT 8:10 PM MDT
Civil Twilight 4:50 AM MDT 8:43 PM MDT
Nautical Twilight 4:08 AM MDT 9:25 PM MDT
Astronomical Twilight 3:20 AM MDT 10:13 PM MDT
Moon 1:05 PM MDT (5/18) 1:28 AM MDT (5/18)
Length of Visible Light 15h 52m
Length of Day
14h 46m
First Quarter, 56% of the Moon is Illuminated
May 18
First Quarter
May 24
Full
May 31
Last Quarter
Jun 8
New
Jun 16
First Quarter

Hourly Weather History & Observations

Time (MDT) Temp. Dew Point Humidity Pressure Visibility Wind Dir Wind Speed Gust Speed Precip Events Conditions
12:52 AM 66.9 °F 54.0 °F 63% 29.63 in 10.0 mi SSE 24.2 mph 36.8 mph N/A   Clear
1:44 AM 66.2 °F 53.6 °F 64% 29.79 in 2.0 mi South 8.1 mph 17.3 mph N/A   Haze
1:52 AM 66.9 °F 54.0 °F 63% 29.69 in 10.0 mi WSW 3.5 mph - N/A   Scattered Clouds
2:03 AM 68.0 °F 53.6 °F 60% 29.79 in 10.0 mi Calm Calm - N/A Thunderstorm Thunderstorm
2:18 AM 66.2 °F 51.8 °F 60% 29.79 in 10.0 mi Calm Calm - N/A   Partly Cloudy
2:52 AM 63.0 °F 50.0 °F 63% 29.68 in 10.0 mi WNW 4.6 mph - N/A   Clear
3:52 AM 57.9 °F 50.0 °F 75% 29.73 in 10.0 mi NNE 3.5 mph - N/A   Clear
4:52 AM 60.1 °F 52.0 °F 75% 29.74 in 10.0 mi East 8.1 mph - N/A   Overcast
5:36 AM 59.0 °F 53.6 °F 82% 29.81 in 10.0 mi Calm Calm - N/A   Overcast
5:52 AM 61.0 °F 55.9 °F 83% 29.74 in 10.0 mi SE 4.6 mph - N/A   Overcast
6:21 AM 62.6 °F 55.4 °F 77% 29.81 in 10.0 mi East 8.1 mph - N/A   Mostly Cloudy
6:31 AM 62.6 °F 57.2 °F 82% 29.81 in 10.0 mi East 8.1 mph - N/A   Mostly Cloudy
6:52 AM 63.0 °F 57.0 °F 81% 29.75 in 10.0 mi ESE 10.4 mph - N/A   Overcast
7:52 AM 63.0 °F 57.0 °F 81% 29.76 in 10.0 mi SE 13.8 mph 20.7 mph N/A   Overcast
8:23 AM 64.4 °F 57.2 °F 77% 29.82 in 10.0 mi SE 15.0 mph - N/A   Overcast
8:52 AM 64.0 °F 57.0 °F 78% 29.77 in 10.0 mi SE 10.4 mph 20.7 mph N/A   Overcast
8:59 AM 64.4 °F 57.2 °F 77% 29.83 in 10.0 mi SE 10.4 mph - N/A   Overcast
9:52 AM 64.9 °F 59.0 °F 81% 29.78 in 10.0 mi SSW 8.1 mph - N/A   Overcast
10:21 AM 62.6 °F 55.4 °F 77% 29.84 in 10.0 mi West 11.5 mph - N/A   Overcast
10:52 AM 63.0 °F 55.0 °F 75% 29.77 in 10.0 mi West 6.9 mph - N/A   Overcast
11:45 AM 64.4 °F 57.2 °F 77% 29.83 in 10.0 mi West 3.5 mph - N/A   Overcast
11:52 AM 64.9 °F 57.0 °F 75% 29.76 in 10.0 mi West 5.8 mph - N/A   Overcast
12:52 PM 69.1 °F 59.0 °F 70% 29.74 in 10.0 mi Calm Calm - N/A   Scattered Clouds
1:52 PM 72.0 °F 59.0 °F 64% 29.72 in 10.0 mi ESE 5.8 mph - N/A   Scattered Clouds
2:52 PM 75.0 °F 59.0 °F 57% 29.70 in 10.0 mi Calm Calm - N/A   Clear
3:52 PM 75.9 °F 59.0 °F 56% 29.68 in 10.0 mi East 6.9 mph - N/A   Clear
4:52 PM 73.0 °F 59.0 °F 61% 29.63 in 10.0 mi ENE 9.2 mph - N/A   Clear
5:25 PM 71.6 °F 60.8 °F 69% 29.72 in 10.0 mi East 11.5 mph - N/A Thunderstorm Scattered Clouds
5:52 PM 69.1 °F 61.0 °F 75% 29.67 in 10.0 mi Calm Calm - 0.00 in Rain , Thunderstorm Light Thunderstorms and Rain
6:17 PM 60.8 °F 51.8 °F 72% 29.77 in 1.8 mi WNW 5.8 mph - 0.26 in Rain , Thunderstorm Heavy Thunderstorms and Rain
6:27 PM 62.6 °F 50.0 °F 63% 29.75 in 3.0 mi West 12.7 mph 20.7 mph 0.35 in Rain , Thunderstorm Thunderstorms and Rain
6:52 PM 60.1 °F 53.1 °F 78% 29.74 in 7.0 mi SE 12.7 mph - 0.40 in Rain , Thunderstorm Thunderstorms and Rain
7:22 PM 57.2 °F 51.8 °F 82% 29.75 in 7.0 mi East 9.2 mph - 0.07 in Rain Light Rain
7:41 PM 62.6 °F 46.4 °F 55% 29.74 in 10.0 mi South 17.3 mph 31.1 mph 0.08 in Rain , Thunderstorm Light Rain
7:52 PM 62.1 °F 48.0 °F 60% 29.68 in 10.0 mi SSE 13.8 mph 28.8 mph 0.09 in Rain , Thunderstorm Light Rain
8:06 PM 59.0 °F 50.0 °F 72% 29.75 in 10.0 mi ESE 15.0 mph - 0.00 in Rain , Thunderstorm Light Rain
8:19 PM 57.2 °F 51.8 °F 82% 29.75 in 10.0 mi SE 19.6 mph 25.3 mph 0.00 in Rain Light Rain
8:52 PM 57.9 °F 51.1 °F 78% 29.67 in 10.0 mi East 15.0 mph 21.9 mph 0.02 in Rain Light Rain
9:52 PM 60.1 °F 54.0 °F 80% 29.73 in 10.0 mi West 5.8 mph - 0.00 in   Mostly Cloudy
10:52 PM 57.9 °F 54.0 °F 87% 29.70 in 10.0 mi ESE 9.2 mph - 0.02 in Rain Light Rain
11:52 PM 57.0 °F 52.0 °F 83% 29.68 in 10.0 mi NW 10.4 mph - 0.00 in   Partly Cloudy